TimeEST,TemperatureF,Dew PointF,Humidity,Sea Level PressureIn,VisibilityMPH,Wind Direction,Wind SpeedMPH,Gust SpeedMPH,PrecipitationIn,Events,Conditions,WindDirDegrees,DateUTC
12:00 AM,17.6,8.6,68,29.71,5.0,North,8.1,29.9,N/A,Snow,Light Snow,350,2004-01-28 05:00:00
12:20 AM,15.8,6.8,68,29.70,10.0,West,18.4,28.8,N/A,,Scattered Clouds,280,2004-01-28 05:20:00
12:43 AM,15.8,6.8,68,29.69,7.0,NW,25.3,49.5,N/A,,Clear,310,2004-01-28 05:43:00
1:00 AM,15.8,6.8,68,29.69,10.0,WNW,25.3,50.6,N/A,,Clear,290,2004-01-28 06:00:00
1:20 AM,15.8,6.8,68,29.70,7.0,West,16.1,43.7,N/A,Snow,Light Snow,280,2004-01-28 06:20:00
1:40 AM,15.8,6.8,68,29.69,4.0,WNW,29.9,58.7,N/A,Snow,Light Snow,290,2004-01-28 06:40:00
2:00 AM,15.8,6.8,68,29.71,4.0,WNW,18.4,61.0,N/A,Snow,Light Snow,290,2004-01-28 07:00:00
2:20 AM,15.8,6.8,68,29.70,3.0,WNW,31.1,42.6,N/A,Snow,Light Snow,300,2004-01-28 07:20:00
2:40 AM,15.8,6.8,68,29.67,4.0,West,36.8,63.3,N/A,Snow,Light Snow,280,2004-01-28 07:40:00
3:00 AM,15.8,6.8,68,29.69,2.5,WNW,29.9,55.2,N/A,Snow,Light Snow,290,2004-01-28 08:00:00
3:20 AM,15.8,6.8,68,29.69,3.0,WNW,32.2,64.4,N/A,Snow,Light Snow,290,2004-01-28 08:20:00
3:40 AM,15.8,6.8,68,29.69,3.0,WNW,31.1,67.9,N/A,Snow,Light Snow,300,2004-01-28 08:40:00
4:02 AM,15.8,6.8,68,29.69,2.5,WNW,33.4,57.5,N/A,Snow,Light Snow,290,2004-01-28 09:02:00
4:20 AM,15.8,6.8,68,29.69,4.0,WNW,38.0,61.0,N/A,Snow,Light Snow,300,2004-01-28 09:20:00
4:41 AM,15.8,6.8,68,29.69,2.0,WNW,35.7,58.7,N/A,Snow,Light Snow,290,2004-01-28 09:41:00
5:00 AM,15.8,6.8,68,29.72,2.0,NW,31.1,56.4,N/A,Snow,Light Snow,310,2004-01-28 10:00:00
5:20 AM,15.8,6.8,68,29.73,3.0,NW,31.1,59.8,N/A,Snow,Light Snow,310,2004-01-28 10:20:00
5:40 AM,15.8,6.8,68,29.72,2.5,WNW,42.6,59.8,N/A,Snow,Light Snow,300,2004-01-28 10:40:00
6:00 AM,15.8,6.8,68,29.72,2.0,WNW,41.4,57.5,N/A,Snow,Light Snow,290,2004-01-28 11:00:00
6:21 AM,15.8,6.8,68,29.71,1.5,WNW,39.1,65.6,N/A,Snow,Light Snow,300,2004-01-28 11:21:00
6:40 AM,15.8,6.8,68,29.76,1.5,WNW,42.6,63.3,N/A,Snow,Light Snow,300,2004-01-28 11:40:00
7:00 AM,15.8,8.6,73,29.78,1.0,WNW,27.6,51.8,N/A,Snow,Light Snow,300,2004-01-28 12:00:00
7:22 AM,15.8,8.6,73,29.80,1.0,WNW,28.8,56.4,N/A,Snow,Light Snow,290,2004-01-28 12:22:00
7:41 AM,15.8,8.6,73,29.82,0.5,WNW,20.7,46.0,N/A,Snow,Light Snow,300,2004-01-28 12:41:00
8:00 AM,15.8,8.6,73,29.80,0.5,WNW,32.2,46.0,N/A,Snow,Light Snow,290,2004-01-28 13:00:00
8:20 AM,15.8,6.8,68,29.82,1.8,WNW,32.2,47.2,N/A,Snow,Light Snow,290,2004-01-28 13:20:00
8:40 AM,15.8,6.8,68,29.84,1.2,WNW,29.9,50.6,N/A,Snow,Light Snow,290,2004-01-28 13:40:00
9:00 AM,15.8,6.8,68,29.86,1.8,WNW,27.6,46.0,N/A,Snow,Light Snow,290,2004-01-28 14:00:00
9:40 AM,15.8,6.8,68,29.89,5.0,WNW,21.9,33.4,N/A,Snow,Light Snow,290,2004-01-28 14:40:00
10:02 AM,15.8,6.8,68,29.91,4.0,West,27.6,41.4,N/A,Snow,Light Snow,280,2004-01-28 15:02:00
10:20 AM,15.8,6.8,68,29.94,1.5,WNW,19.6,41.4,N/A,Snow,Light Snow,300,2004-01-28 15:20:00
10:40 AM,17.6,6.8,63,29.96,2.0,West,20.7,32.2,N/A,Snow,Light Snow,280,2004-01-28 15:40:00
11:00 AM,17.6,6.8,63,29.96,2.5,WNW,25.3,36.8,N/A,Snow,Light Snow,300,2004-01-28 16:00:00
11:21 AM,17.6,6.8,63,29.96,3.0,WNW,23.0,44.9,N/A,Snow,Light Snow,300,2004-01-28 16:21:00
11:40 AM,17.6,6.8,63,29.95,5.0,WNW,26.5,54.1,N/A,,Clear,300,2004-01-28 16:40:00
12:00 PM,19.4,6.8,58,29.95,10.0,WNW,21.9,42.6,N/A,,Clear,290,2004-01-28 17:00:00
12:20 PM,19.4,6.8,58,29.94,10.0,WNW,25.3,46.0,N/A,,Clear,300,2004-01-28 17:20:00
12:40 PM,19.4,6.8,58,29.94,10.0,WNW,23.0,39.1,N/A,,Clear,300,2004-01-28 17:40:00
1:00 PM,21.2,6.8,54,29.95,10.0,WNW,20.7,43.7,N/A,,Clear,300,2004-01-28 18:00:00
1:20 PM,21.2,6.8,54,29.95,10.0,NW,24.2,33.4,N/A,,Clear,310,2004-01-28 18:20:00
1:41 PM,23.0,3.2,43,29.94,10.0,WNW,26.5,42.6,N/A,,Clear,300,2004-01-28 18:41:00
2:00 PM,24.8,1.4,36,29.94,10.0,WNW,29.9,41.4,N/A,,Clear,300,2004-01-28 19:00:00
2:20 PM,24.8,3.2,40,29.94,10.0,NW,25.3,52.9,N/A,,Clear,310,2004-01-28 19:20:00
2:40 PM,24.8,3.2,40,29.93,10.0,NW,27.6,43.7,N/A,,Clear,310,2004-01-28 19:40:00
3:00 PM,24.8,3.2,40,29.93,10.0,WNW,31.1,47.2,N/A,,Clear,300,2004-01-28 20:00:00
3:20 PM,24.8,3.2,40,29.94,10.0,NW,29.9,47.2,N/A,,Clear,310,2004-01-28 20:20:00
3:41 PM,24.8,3.2,40,29.93,10.0,NW,21.9,43.7,N/A,,Clear,310,2004-01-28 20:41:00
4:00 PM,24.8,3.2,40,29.94,10.0,NW,27.6,43.7,N/A,,Clear,310,2004-01-28 21:00:00
4:20 PM,24.8,3.2,40,29.94,10.0,NW,27.6,44.9,N/A,,Clear,310,2004-01-28 21:20:00
4:40 PM,24.8,3.2,40,29.94,10.0,WNW,33.4,46.0,N/A,,Clear,300,2004-01-28 21:40:00
5:00 PM,24.8,3.2,40,29.95,10.0,WNW,28.8,46.0,N/A,,Clear,300,2004-01-28 22:00:00
5:20 PM,24.8,1.4,36,29.95,10.0,WNW,29.9,47.2,N/A,,Clear,300,2004-01-28 22:20:00
5:40 PM,23.0,3.2,43,29.97,10.0,WNW,26.5,41.4,N/A,,Clear,300,2004-01-28 22:40:00
6:01 PM,23.0,3.2,43,29.97,10.0,WNW,34.5,48.3,N/A,,Clear,290,2004-01-28 23:01:00
6:20 PM,23.0,1.4,39,29.97,10.0,NW,31.1,44.9,N/A,,Clear,310,2004-01-28 23:20:00
6:40 PM,23.0,-0.4,36,29.99,10.0,WNW,16.1,41.4,N/A,,Clear,300,2004-01-28 23:40:00
7:00 PM,21.2,3.2,46,29.98,10.0,WNW,25.3,40.3,N/A,,Clear,290,2004-01-29 00:00:00
7:21 PM,21.2,3.2,46,29.98,10.0,NW,26.5,41.4,N/A,,Clear,310,2004-01-29 00:21:00
7:40 PM,21.2,3.2,46,29.98,10.0,WNW,26.5,36.8,N/A,,Clear,300,2004-01-29 00:40:00
8:00 PM,23.0,3.2,43,29.98,10.0,WNW,23.0,36.8,N/A,,Clear,300,2004-01-29 01:00:00
8:20 PM,24.8,1.4,36,29.98,10.0,WNW,21.9,35.7,N/A,,Clear,300,2004-01-29 01:20:00
8:41 PM,24.8,1.4,36,29.99,10.0,WNW,13.8,35.7,N/A,,Clear,290,2004-01-29 01:41:00
9:00 PM,24.8,3.2,40,29.99,10.0,WNW,21.9,35.7,N/A,,Clear,300,2004-01-29 02:00:00
9:20 PM,23.0,3.2,43,30.00,10.0,WNW,17.3,36.8,N/A,,Clear,300,2004-01-29 02:20:00
9:40 PM,21.2,3.2,46,30.01,10.0,WNW,12.7,23.0,N/A,,Clear,290,2004-01-29 02:40:00
10:00 PM,21.2,3.2,46,30.01,10.0,WNW,4.6,24.2,N/A,,Clear,290,2004-01-29 03:00:00
10:20 PM,21.2,5.0,50,30.01,10.0,WNW,10.4,21.9,N/A,,Clear,290,2004-01-29 03:20:00
10:40 PM,23.0,3.2,43,30.00,10.0,West,20.7,44.9,N/A,,Clear,280,2004-01-29 03:40:00
11:00 PM,23.0,3.2,43,30.00,10.0,West,26.5,35.7,N/A,,Clear,280,2004-01-29 04:00:00
11:20 PM,23.0,3.2,43,29.98,10.0,West,31.1,46.0,N/A,,Clear,280,2004-01-29 04:20:00
11:40 PM,24.8,3.2,40,29.98,10.0,WNW,27.6,44.9,N/A,,Clear,300,2004-01-29 04:40:00